Wind_Gust
10 9 6 6 4 5 8 6 5 4 3 4 5 5 5 5 5 6 6 6 6 5 6 7 8 7 7 5 7 7 9 11 10 12 10 6 15 10 5 5 5 7 5 5 6 10 13 13 7 6 7 9 11 10 10 10 10 12 11 7 9 9 8
8 10 6 5 7 5 6 4 5 3 3 2 2 3 4 5 5 6 5 6 6 6 5 5 4 7 10 10 7 8 10 8 9 7 11 12 8 9 8 5 8 6 7 6 8 5 11 13 7 6 9 9 13 10 9 8 7 7 9 9 8 8 7
7 7 8 8 6 5 7 5 4 4 3 2 1 2 2 3 3 5 6 7 7 7 7 7 5 6 7 9 10 9 8 9 5 9 12 10 9 5 6 10 8 6 7 7 5 7 9 4 17 15 8 12 12 6 7 8 7 7 8 8 8 6 6
8 10 9 6 6 5 8 5 5 4 3 4 5 4 3 2 3 3 6 7 6 6 6 7 8 9 9 9 9 7 9 10 9 8 5 5 7 6 5 9 13 15 12 11 12 8 8 10 13 10 8 7 10 12 5 6 8 7 6 5 8 6 5
11 11 12 10 8 8 8 8 4 8 6 7 6 7 5 4 5 3 4 6 8 6 6 6 6 7 7 7 8 9 9 8 8 10 9 9 8 8 5 7 7 5 5 9 11 10 12 15 18 14 11 9 10 8 7 8 7 6 4 3 2 5 5
11 11 9 9 7 10 10 9 7 9 6 8 5 8 4 4 6 6 5 7 6 4 6 6 4 5 7 7 8 7 8 9 10 10 11 10 11 12 10 5 8 7 8 8 10 11 9 13 18 18 5 5 11 10 5 5 7 2 3 2 2 1 3
11 10 10 11 7 8 10 10 9 10 9 8 7 7 6 4 5 5 5 4 4 3 4 5 6 5 5 8 7 8 8 7 8 8 8 6 5 4 5 8 6 8 8 8 11 13 16 18 15 17 13 9 9 10 6 4 2 6 2 2 2 2 1
12 11 9 9 9 8 6 9 7 7 10 7 9 7 5 5 4 4 4 6 4 4 4 5 5 5 5 5 4 4 5 7 8 9 9 10 9 7 5 7 8 7 10 9 11 11 13 17 20 18 21 21 10 6 4 4 2 3 5 3 4 2 4
8 8 8 5 7 9 9 10 9 7 9 8 5 7 4 6 5 5 5 6 6 5 4 6 5 6 6 7 4 4 5 4 9 8 10 10 10 9 8 5 5 6 9 9 8 10 9 11 15 13 16 20 23 13 4 6 3 2 3 5 2 5 6
10 11 11 9 9 7 9 7 9 7 6 6 7 6 8 5 6 5 6 6 6 5 5 5 6 5 5 5 6 4 4 4 7 9 9 9 7 8 8 9 8 8 8 7 8 10 10 10 10 11 15 21 19 21 11 9 8 8 6 5 7 8 8
12 10 9 10 7 9 6 7 6 8 6 6 7 5 7 6 6 6 7 5 5 5 6 5 6 6 6 6 4 4 3 5 8 5 5 8 8 7 7 6 6 8 6 10 10 10 10 12 12 11 10 10 17 22 15 15 15 10 8 5 5 7 5
5 8 7 8 8 10 9 8 8 7 5 5 6 6 6 6 5 6 6 5 4 6 5 6 5 6 6 7 3 6 3 6 10 8 5 8 7 9 9 8 6 8 7 10 11 10 9 11 11 11 9 10 5 7 17 12 12 11 8 12 10 6 9
3 8 8 10 8 9 9 9 8 6 7 6 5 4 6 5 5 6 5 5 4 4 6 4 5 5 5 5 5 6 3 6 9 8 5 4 9 9 10 9 8 11 7 9 10 10 11 8 10 11 11 10 7 8 5 13 12 12 8 8 8 6 7
8 5 4 5 7 7 7 8 8 8 7 6 6 6 5 5 5 6 5 4 4 4 5 4 3 5 6 4 4 5 3 5 8 4 7 6 5 8 10 10 7 6 8 10 10 9 9 9 7 7 6 9 10 7 10 7 10 5 4 3 5 9 6
8 7 7 9 9 8 8 9 8 7 8 6 7 7 6 4 5 6 6 3 2 3 3 4 3 5 6 5 3 3 5 4 6 4 5 6 5 6 9 11 7 6 5 10 9 8 8 9 8 9 7 10 11 10 8 9 5 8 11 3 4 1 7
10 7 7 8 9 9 7 7 7 9 7 7 5 9 7 6 6 6 6 4 3 3 2 3 2 5 5 6 5 3 3 4 5 5 5 5 5 5 8 9 6 6 5 7 5 5 5 7 7 12 12 9 12 11 9 7 9 5 9 8 5 6 7
11 9 7 5 9 8 8 8 6 8 7 6 7 4 6 7 6 6 6 4 3 2 2 1 2 2 5 5 5 4 2 3 2 3 5 5 5 6 8 8 6 6 6 9 6 6 4 5 9 10 11 9 11 13 9 6 6 9 7 9 6 12 9
11 10 9 8 4 5 8 8 7 8 7 6 4 5 4 4 6 5 7 6 4 3 4 4 4 2 1 2 4 5 3 2 3 3 4 5 6 6 7 9 7 6 7 11 6 7 7 6 6 8 8 8 9 9 8 7 6 6 10 11 9 7 4
9 7 9 9 9 5 2 6 5 5 6 7 3 4 6 3 6 6 5 5 5 5 3 3 5 5 5 3 3 3 3 3 3 3 3 4 4 4 7 7 6 7 8 11 8 7 7 8 7 8 9 8 8 7 8 6 7 7 10 12 11 8 2
16 12 9 10 11 9 6 5 5 8 5 5 6 5 3 4 3 5 5 4 4 5 4 4 4 4 4 5 5 4 3 3 2 3 4 5 4 3 5 7 7 7 8 9 10 10 9 7 9 8 9 10 9 9 9 8 8 9 10 10 6 5 6
12 16 11 10 11 9 5 4 2 3 5 6 6 6 8 7 6 5 6 7 6 5 5 5 4 3 3 5 5 5 6 5 5 4 4 4 4 5 5 6 6 6 8 9 9 8 9 10 6 7 6 8 10 10 9 8 6 9 9 8 10 9 4
10 11 11 11 10 8 8 8 6 4 3 3 2 3 3 4 5 5 4 4 3 4 5 7 7 6 5 4 4 6 6 6 7 6 4 2 1 1 2 3 3 4 5 8 8 10 9 9 12 9 5 7 8 9 8 7 9 9 8 9 6 3 6
12 6 9 10 9 8 8 10 10 8 8 6 7 3 5 4 4 4 6 5 3 4 6 5 7 10 8 8 8 7 6 5 6 6 5 3 2 2 3 3 3 5 4 7 9 9 8 8 8 12 14 10 10 10 11 10 9 10 10 11 11 10 8
13 14 10 10 8 9 10 11 11 11 9 8 8 8 5 5 2 5 5 6 7 7 7 8 9 10 12 13 10 8 8 7 5 6 7 7 8 6 4 2 2 2 5 5 6 8 9 10 9 9 12 13 12 16 12 10 9 10 12 11 8 7 10
11 10 10 12 10 10 11 12 13 11 10 11 11 7 9 5 5 2 4 5 6 7 9 9 12 10 11 12 11 11 9 9 8 7 7 8 8 7 6 5 3 2 3 6 7 7 7 7 7 9 11 11 10 9 9 13 11 8 8 9 7 10 10
15 14 12 10 8 10 12 10 11 11 9 5 7 9 8 7 5 6 2 2 6 7 8 10 14 13 13 13 13 10 9 9 11 10 9 9 9 9 7 7 9 7 5 6 7 6 8 7 4 3 4 5 6 8 9 9 9 13 13 11 12 10 14
19 18 17 16 16 16 14 11 7 8 9 8 9 8 7 8 8 7 6 4 5 4 7 6 10 14 15 15 14 10 7 8 10 11 12 11 11 12 12 14 12 9 6 5 7 7 7 7 7 5 5 5 5 2 3 7 8 10 13 14 14 15 11
17 17 17 17 17 17 16 15 15 13 12 10 10 10 10 9 9 9 9 6 5 8 7 5 7 8 10 13 15 12 8 6 7 8 10 9 10 13 14 12 12 14 12 10 10 11 11 11 9 9 7 6 5 3 3 2 2 3 6 5 12 12 12
16 16 16 17 17 16 15 15 14 12 12 12 10 9 10 8 9 10 9 9 9 8 8 8 7 7 8 7 5 7 7 9 10 11 10 9 8 11 8 10 10 10 8 11 11 15 13 13 11 11 10 7 6 3 2 3 3 5 4 9 9 14 14
16 16 15 17 17 15 15 15 13 12 13 12 12 12 10 8 8 8 9 8 8 10 10 6 6 9 8 7 5 6 6 7 7 9 11 9 12 8 7 7 7 9 9 11 12 15 14 11 9 10 10 9 7 4 5 4 7 6 3 8 10 12 12
16 16 16 16 14 12 11 10 12 10 11 12 13 12 10 11 9 9 10 11 10 9 11 12 8 7 11 10 9 9 9 9 7 8 8 8 10 11 10 13 12 12 13 14 12 14 15 18 16 13 13 11 10 9 7 2 6 8 10 13 15 14 12
13 13 14 12 12 12 12 10 8 8 10 10 11 11 12 12 12 12 11 10 11 12 11 12 15 14 9 13 12 11 9 9 9 10 9 10 7 8 11 16 15 13 12 12 11 14 17 16 19 16 14 12 13 15 14 11 13 13 11 14 14 15 14
14 15 13 12 12 11 9 11 13 12 11 10 11 11 11 12 13 13 13 13 12 11 12 13 13 16 16 12 13 12 8 9 11 12 10 11 8 8 13 12 16 16 16 15 11 13 17 20 18 16 16 18 17 20 12 11 14 18 17 17 15 12 12
15 14 13 12 11 12 12 12 10 12 12 12 11 12 12 10 10 10 11 10 11 12 12 14 14 15 15 13 12 11 11 12 11 11 11 10 11 11 12 13 15 16 19 16 13 16 17 18 15 15 17 20 24 15 16 15 15 10 15 13 12 11 9
13 12 13 14 15 15 14 14 14 14 13 11 11 10 9 12 12 12 11 10 8 10 12 14 16 16 17 16 12 10 13 14 14 13 12 10 10 10 13 14 15 17 20 19 16 17 18 17 20 17 19 11 11 19 20 11 13 11 11 12 11 10 9
13 12 13 13 13 14 13 14 14 14 15 15 16 16 16 15 13 12 11 10 10 11 13 12 12 16 18 19 17 13 14 16 14 12 12 14 14 16 13 13 14 16 18 18 17 18 17 19 15 18 15 13 18 21 16 14 15 13 13 13 14 13 8
10 10 10 11 11 11 12 11 11 12 11 12 12 13 14 15 15 16 18 18 15 12 11 12 13 15 16 17 18 15 14 17 17 14 12 14 12 11 10 12 15 16 16 18 20 19 16 16 18 17 13 15 18 16 16 16 13 13 12 13 12 12 11
Wind_Speed
6 5 4 4 3 3 5 4 3 2 2 3 3 3 3 3 3 3 3 3 4 3 3 4 5 4 4 3 4 5 5 5 5 6 5 3 7 2 2 2 3 4 3 3 4 4 5 5 3 4 5 6 6 5 4 5 5 5 5 4 4 5 4
5 5 4 3 4 3 4 3 3 2 1 1 2 2 2 3 3 4 3 4 4 4 3 3 3 4 6 5 4 5 6 5 5 4 5 6 5 4 4 2 4 4 4 3 5 3 4 5 3 3 4 5 7 5 5 5 4 4 4 4 4 4 4
3 3 4 4 3 3 4 3 2 2 2 1 0 1 2 2 2 2 4 5 5 5 4 5 3 4 4 5 5 5 5 6 3 5 7 6 5 3 4 5 4 2 4 3 3 4 5 3 6 6 4 6 5 3 4 5 4 3 3 4 4 3 3
5 6 5 3 3 3 5 3 3 2 1 2 2 2 1 1 2 2 4 4 4 3 4 4 5 6 5 5 5 4 5 6 5 5 3 4 4 4 4 6 7 8 6 5 7 4 4 5 7 5 4 3 6 6 3 3 4 4 3 3 3 3 3
7 6 6 5 4 5 5 5 3 4 3 3 3 3 2 1 2 2 2 3 3 3 3 4 3 4 5 4 5 5 5 4 4 5 5 5 5 5 3 5 5 3 3 5 6 6 7 8 10 7 6 3 5 3 2 3 4 4 2 2 1 1 1
7 7 6 6 4 6 5 5 5 6 5 5 3 5 3 3 3 3 3 5 3 3 3 2 2 3 4 4 5 4 5 6 6 6 6 6 6 6 6 3 5 4 4 4 6 6 6 7 10 9 2 3 5 3 1 2 1 1 1 1 1 1 1
7 7 6 6 5 5 6 6 6 6 6 5 5 4 4 2 2 2 3 3 2 2 3 3 3 3 3 5 4 5 5 4 5 5 5 4 4 3 3 5 4 5 4 5 6 7 9 9 8 10 7 4 5 5 1 1 0 2 0 0 1 1 1
7 6 6 5 6 5 4 6 4 5 6 4 6 4 3 4 3 3 3 3 3 3 3 3 3 3 3 3 2 3 3 4 5 5 4 5 5 4 4 5 5 5 5 5 6 6 7 9 10 9 11 11 4 3 1 1 0 0 2 1 2 1 2
5 5 5 3 4 5 5 6 6 4 5 5 3 4 3 4 4 3 2 3 3 2 2 3 3 4 4 4 3 3 3 2 5 5 5 5 5 5 5 3 3 4 5 5 5 6 5 6 8 7 9 11 12 6 1 2 1 0 2 2 1 3 4
6 7 7 6 5 4 5 4 6 4 4 4 4 3 4 3 4 3 4 3 4 3 2 2 3 3 3 3 3 3 3 3 5 6 5 6 5 5 4 5 5 5 5 3 5 6 6 6 6 7 9 11 10 10 5 4 4 3 3 2 3 4 5
7 6 6 6 4 5 3 3 3 5 4 3 3 2 3 4 4 4 4 3 3 3 3 2 3 3 4 3 3 2 1 3 4 3 3 5 5 4 4 3 3 5 4 6 6 6 6 7 7 7 6 6 9 12 7 8 7 4 4 3 2 3 3
3 5 4 5 4 5 5 4 4 4 3 3 3 3 3 3 3 4 4 4 3 3 2 3 3 3 3 4 2 2 1 2 4 4 2 4 4 5 5 5 3 4 4 6 6 6 5 6 7 6 6 6 3 5 10 6 5 5 4 6 5 3 4
2 1 5 4 4 4 5 5 5 4 5 3 3 3 3 3 3 4 3 3 3 3 3 1 2 3 3 3 3 4 1 2 4 4 2 1 3 4 5 5 4 5 3 5 6 6 6 5 6 6 6 6 4 4 3 6 7 6 4 4 4 4 4
6 3 3 4 4 4 4 4 4 5 4 4 4 4 4 3 3 4 4 3 3 3 3 2 1 3 3 3 2 3 3 2 4 2 4 3 2 4 5 5 4 4 4 5 5 6 6 5 4 5 4 5 6 4 6 3 5 3 0 1 2 4 3
5 5 5 6 5 5 5 4 4 4 4 3 4 4 4 3 3 4 4 3 2 2 2 3 2 2 4 3 2 2 3 3 4 3 3 4 3 3 5 6 4 4 3 4 4 5 5 6 5 5 4 6 6 6 5 4 2 4 6 0 2 1 2
6 5 5 5 6 6 4 4 3 5 4 3 2 4 4 4 4 4 4 3 2 2 1 2 1 2 3 4 3 2 2 3 3 4 3 3 3 3 5 5 4 4 3 4 3 3 4 4 4 6 7 5 7 6 5 4 4 2 6 4 2 3 3
7 5 5 3 6 5 5 4 4 5 5 4 3 1 3 4 4 4 4 3 2 2 2 1 2 1 3 3 3 3 2 2 2 2 4 3 2 3 5 5 3 4 4 4 2 3 2 3 5 6 6 5 6 7 6 4 3 5 3 5 3 5 3
6 6 6 5 3 2 4 4 3 4 4 4 3 3 2 2 3 3 4 4 3 3 3 3 3 2 1 1 3 3 2 2 2 2 3 4 3 4 4 5 4 3 4 5 2 2 2 4 3 4 5 5 6 5 4 4 4 4 6 6 4 2 1
6 5 6 6 6 3 1 3 3 2 3 4 3 2 3 2 3 3 3 3 3 3 2 3 3 4 3 2 2 2 2 1 1 2 3 3 3 3 4 4 4 4 5 7 5 4 4 5 4 5 5 5 5 4 5 4 4 5 6 7 7 4 1
7 7 6 6 6 5 4 4 1 5 3 4 4 3 2 3 1 3 3 3 3 3 3 3 3 3 3 3 3 3 2 1 1 2 2 3 3 2 3 4 5 4 5 6 7 6 6 4 5 5 6 6 5 6 6 5 5 6 6 5 3 3 3
6 8 6 3 5 5 2 1 2 0 3 4 4 4 5 5 4 3 3 4 3 3 3 3 3 2 2 4 4 3 4 3 3 2 2 2 2 2 3 4 4 4 5 5 6 5 6 6 4 5 4 5 5 6 6 5 4 5 5 5 6 5 2
5 5 5 6 6 5 3 2 3 2 1 1 1 2 2 3 4 4 3 2 1 1 3 4 3 3 3 3 3 4 4 4 4 4 2 1 1 1 1 2 3 3 3 5 6 7 6 6 6 5 3 4 5 6 5 4 6 6 4 5 4 1 4
5 4 4 6 6 5 4 5 6 4 4 4 4 2 2 3 3 3 4 4 3 3 3 3 4 8 7 5 5 4 3 3 4 4 4 3 2 2 2 2 1 2 4 6 8 8 7 8 7 7 8 6 6 6 7 6 6 6 6 6 7 6 5
6 6 4 4 5 6 6 6 6 5 5 4 4 4 3 2 1 3 4 4 4 4 4 4 7 7 8 10 6 5 5 4 3 4 4 4 5 5 3 2 1 1 2 3 4 7 9 9 8 8 10 11 10 10 7 6 6 6 7 6 4 4 6
6 6 6 5 5 6 6 6 4 3 5 6 6 4 6 3 3 2 2 3 4 4 4 7 9 9 8 8 7 6 5 5 4 4 4 5 6 5 4 4 3 1 2 3 4 4 5 7 6 6 9 10 9 8 8 8 6 4 4 5 4 6 5
9 9 7 6 5 6 6 6 4 4 5 3 3 5 5 4 4 4 1 1 3 4 4 7 9 10 10 10 10 6 4 4 6 5 5 5 5 5 4 4 6 5 3 4 3 4 4 4 4 3 4 5 5 7 8 8 8 8 7 6 7 5 7
11 9 9 9 10 10 9 7 5 5 5 5 6 5 5 5 5 4 4 3 4 3 3 5 6 9 10 11 11 7 4 4 5 5 7 7 6 6 6 7 6 6 4 4 5 4 4 4 4 3 3 4 4 2 3 6 8 8 10 8 8 8 6
10 10 10 10 10 10 9 8 9 8 8 7 6 6 6 6 5 5 5 3 3 5 4 4 6 7 7 7 8 6 4 4 4 5 5 5 5 6 7 7 7 8 7 6 6 7 6 7 5 5 4 4 4 3 2 2 1 2 4 4 6 5 6
10 10 10 10 11 10 9 9 9 7 7 7 6 6 6 5 6 6 6 5 5 5 5 7 7 6 6 6 4 4 4 5 5 6 6 5 5 6 5 6 6 6 5 6 9 12 11 6 6 6 6 5 4 2 0 2 2 4 3 4 6 7 8
10 10 9 10 10 9 9 9 8 7 8 7 7 8 6 5 5 5 6 5 5 6 6 5 5 7 7 3 3 4 4 5 5 5 7 5 7 5 4 5 4 5 5 7 9 10 9 6 4 4 6 5 4 3 3 2 5 5 1 4 9 11 11
10 10 10 10 8 7 7 6 7 6 6 6 7 6 6 6 6 6 6 7 6 6 6 8 7 5 8 7 5 4 4 5 5 5 5 5 5 6 2 6 7 5 7 8 11 11 12 11 8 8 6 6 7 6 4 0 2 4 8 11 13 13 9
8 8 9 8 7 8 7 6 5 5 5 4 3 3 5 6 6 6 7 6 9 8 7 9 13 12 7 7 6 6 5 4 5 6 5 6 4 3 5 12 12 10 8 9 10 9 11 9 7 9 8 7 7 8 8 6 6 6 5 7 7 9 8
6 6 5 4 3 3 2 3 5 4 5 5 6 6 6 6 7 7 6 7 7 7 7 8 9 14 13 10 6 5 5 5 6 7 6 6 4 3 6 6 9 12 13 13 10 10 13 14 10 9 9 10 9 11 5 7 5 7 8 9 9 7 7
9 8 6 5 4 4 5 5 5 6 6 6 6 6 7 6 6 6 6 6 7 7 7 9 9 13 13 12 9 3 4 6 6 6 6 6 6 6 6 7 7 13 16 14 12 13 13 13 11 9 9 10 10 3 10 7 9 9 8 7 6 6 5
7 7 7 7 8 8 7 6 6 5 5 5 6 6 6 7 7 7 6 5 5 6 8 11 10 13 14 14 11 5 4 7 7 6 6 6 5 6 7 7 8 12 16 16 14 14 14 12 14 9 11 10 9 15 12 7 7 7 6 6 6 5 5
7 6 7 7 8 8 7 8 8 8 8 8 7 6 5 5 5 6 6 6 5 6 7 7 10 11 15 16 15 11 8 9 11 7 6 7 7 7 6 6 8 12 15 15 14 14 14 15 10 11 13 10 13 16 12 7 8 8 8 8 8 7 5
6 6 6 6 7 7 7 7 7 7 7 7 7 7 7 7 7 8 8 8 6 5 5 7 10 13 12 14 15 13 12 11 11 8 7 7 6 6 6 6 9 14 14 14 16 16 14 12 11 15 11 13 14 13 9 9 7 7 6 7 7 6 6
Wind_Direction
158 163 161 139 103 121 123 138 145 155 112 129 151 163 160 160 160 156 151 153 155 174 169 175 173 159 148 157 159 166 153 167 174 171 188 193 180 210 57 32 70 95 95 87 118 139 116 129 91 31 54 60 67 57 80 96 98 105 101 86 90 80 76
150 152 134 108 125 120 121 112 140 122 92 104 156 159 163 161 170 166 158 157 161 175 176 179 165 159 169 167 157 158 162 173 184 180 164 192 195 195 119 65 81 67 71 70 106 92 133 132 83 115 107 63 64 44 50 67 69 69 86 94 87 89 83
132 117 119 123 123 119 120 122 125 127 142 141 66 103 138 199 175 166 171 176 183 175 177 183 169 167 173 174 175 172 162 163 176 168 186 188 193 178 148 147 126 96 76 77 69 100 69 38 145 145 125 119 96 357 25 51 57 55 75 83 87 81 81
146 140 122 95 88 91 116 122 141 147 126 122 105 70 85 79 104 146 174 184 184 174 173 176 181 177 178 177 175 167 167 166 171 176 175 182 177 183 160 158 164 167 167 163 168 163 136 121 99 99 98 78 117 104 11 35 48 43 43 34 77 87 95
147 150 149 145 149 142 137 130 125 103 85 81 85 94 84 80 88 81 128 147 165 158 183 192 180 175 162 160 167 173 180 178 163 167 172 174 188 187 176 153 160 147 117 139 162 148 138 143 136 132 121 110 64 59 107 68 46 47 30 51 39 98 114
150 151 144 145 161 146 143 130 129 123 127 105 128 127 158 162 141 120 131 141 143 176 166 158 158 143 143 154 164 172 170 172 177 169 174 189 180 180 187 169 150 131 134 148 135 126 106 122 131 124 107 107 120 115 102 91 98 7 39 47 97 91 134
147 145 147 154 164 157 152 146 144 144 136 146 154 155 177 137 94 112 122 119 132 125 139 149 139 137 139 149 164 171 178 169 153 168 173 170 166 167 151 148 152 134 154 154 144 132 135 128 131 133 124 65 104 128 98 56 76 83 292 76 136 135 196
145 142 146 152 152 155 163 143 145 144 139 167 152 165 145 112 106 94 114 124 127 131 132 123 113 108 114 113 137 151 122 148 153 146 155 156 154 158 168 175 154 137 157 162 142 141 144 145 143 149 135 121 81 89 86 22 355 106 199 244 181 182 218
116 115 121 136 164 167 166 156 157 160 151 150 153 136 148 129 123 104 93 118 126 120 125 118 116 112 115 118 118 123 122 136 140 148 163 162 165 173 174 157 135 146 162 155 130 127 123 135 133 134 136 137 140 155 119 137 305 296 165 136 226 204 197
138 151 159 167 173 176 163 162 152 153 136 134 148 148 137 127 122 118 112 119 125 129 114 110 110 106 104 111 124 125 124 132 137 155 158 159 171 166 161 170 168 144 152 129 111 117 123 118 131 141 150 153 154 137 141 162 219 178 236 180 160 233 187
159 156 150 159 166 151 153 126 115 124 142 140 132 145 129 130 114 104 110 109 124 128 141 131 119 111 100 84 92 85 132 122 112 111 144 144 158 155 147 139 134 133 147 136 139 139 135 143 144 149 137 144 148 148 159 158 214 205 191 218 192 189 181
149 144 147 149 151 155 151 141 135 130 115 117 119 119 114 104 106 97 106 110 117 128 127 134 126 118 115 100 76 85 65 117 117 118 143 142 152 140 141 147 148 143 155 138 144 144 140 142 151 140 138 148 162 142 154 136 144 238 164 188 235 226 188
104 111 135 138 148 154 149 144 137 133 146 126 124 123 117 115 111 101 82 96 99 105 115 101 114 119 92 98 113 97 76 117 110 121 113 96 128 130 134 141 163 158 163 142 148 154 154 155 149 148 154 158 145 121 124 145 152 192 212 182 212 218 188
86 77 103 127 140 143 142 141 144 145 124 134 136 129 126 126 111 105 100 103 119 122 121 104 69 101 98 88 64 89 78 96 109 97 104 81 78 117 123 135 160 175 157 153 164 157 157 153 141 133 138 144 146 140 136 128 126 123 166 215 193 203 181
113 121 145 144 145 140 143 147 143 130 137 154 145 143 139 134 114 111 110 113 113 116 117 114 100 107 114 102 79 57 95 97 98 90 97 103 83 95 123 126 142 158 167 150 150 160 162 146 154 145 158 161 164 167 165 112 134 133 186 266 246 6 158
111 117 139 144 144 144 142 141 144 138 138 155 174 151 153 143 131 119 111 116 130 133 128 120 88 107 125 135 121 69 75 105 120 115 93 88 88 101 103 118 141 133 118 119 123 132 142 164 166 175 179 170 173 175 178 150 124 137 163 217 188 178 198
92 103 116 132 148 147 145 155 156 142 147 142 142 115 135 139 124 123 124 113 129 158 138 129 109 110 154 142 126 123 96 95 90 110 121 115 105 100 121 111 130 120 111 110 107 116 119 149 176 187 176 180 171 175 174 166 152 135 160 164 234 195 201
76 93 90 81 69 87 146 151 151 147 141 142 138 128 105 99 119 131 151 156 152 176 187 156 150 141 154 153 144 138 134 121 130 130 136 141 143 136 135 137 152 121 119 118 112 125 142 141 150 152 169 169 169 166 148 150 141 121 139 174 202 247 178
114 86 77 73 69 43 253 158 149 129 156 150 136 136 142 150 162 183 188 173 173 191 169 170 174 181 173 158 143 133 138 142 149 144 143 145 152 164 140 140 149 150 145 143 163 170 163 153 145 147 148 154 151 148 143 136 137 142 162 178 167 190 246
126 91 45 57 68 22 4 357 235 159 193 153 150 159 159 175 216 192 206 171 183 190 180 166 180 182 164 161 159 154 157 159 165 162 176 181 182 188 162 149 155 159 150 153 157 171 165 159 156 164 163 156 153 145 151 156 146 151 170 170 183 164 147
88 112 129 93 69 71 22 7 332 149 171 155 175 180 181 194 206 197 215 202 206 198 172 168 175 169 165 159 157 172 174 174 181 201 207 227 214 209 193 176 162 169 157 169 163 175 162 163 156 148 165 142 148 146 155 151 145 153 163 178 182 182 166
83 89 104 115 104 91 97 68 52 57 67 87 132 202 190 181 182 209 229 220 224 213 194 201 189 172 155 141 146 164 177 175 175 190 210 235 287 265 258 224 192 171 175 174 179 171 184 167 153 156 182 151 149 146 141 153 162 158 163 169 183 98 137
85 76 72 86 95 101 92 77 62 50 62 67 44 7 138 141 169 200 219 212 185 211 229 228 216 194 173 167 166 167 164 172 178 177 183 196 243 258 256 275 284 225 206 177 177 180 179 187 189 174 170 168 161 150 157 155 163 169 161 171 193 170 174
69 67 60 74 74 64 52 49 58 52 36 26 57 63 48 43 149 197 205 215 214 211 223 231 226 214 212 182 167 170 171 185 171 175 182 191 211 230 256 275 303 269 191 195 192 188 187 190 192 189 180 179 175 165 159 162 177 170 171 188 170 164 185
60 48 51 43 51 70 73 65 46 52 61 28 2 21 52 41 13 337 214 190 204 231 238 234 230 222 222 231 215 184 175 174 184 184 189 196 208 206 219 237 252 237 211 214 200 205 214 212 212 195 183 182 185 186 175 164 163 173 175 168 168 198 170
48 40 33 36 40 55 69 70 54 36 42 27 25 21 9 17 22 350 355 198 230 227 235 257 252 237 224 220 231 233 191 188 184 200 195 197 197 201 201 213 235 244 234 215 210 206 205 212 206 172 164 178 191 195 203 200 177 177 172 171 187 194 195
52 47 43 45 46 45 43 43 25 13 25 26 27 13 7 6 357 7 349 334 315 291 261 268 258 262 251 230 218 211 239 204 213 209 205 199 198 198 197 201 211 230 235 214 202 199 201 200 188 171 174 181 180 179 206 208 211 184 175 181 179 197 208
46 42 40 42 47 47 43 36 33 20 22 22 19 9 0 359 352 345 345 342 342 326 303 297 253 232 244 270 271 227 231 222 229 244 245 230 213 209 208 206 205 213 211 210 207 196 189 193 188 192 189 196 192 187 158 132 134 179 196 185 189 196 168
45 41 38 39 40 37 36 34 32 19 22 16 16 12 7 14 6 351 339 341 348 340 328 334 306 276 233 206 172 195 231 229 224 234 240 235 225 223 214 208 211 221 217 223 221 204 201 179 179 182 196 209 215 222 197 29 330 266 260 168 139 132 163
50 45 41 41 37 30 25 20 21 23 31 17 15 14 8 355 345 352 351 353 353 332 327 342 336 318 305 275 162 193 195 209 226 234 240 233 232 225 202 208 206 220 225 232 232 210 211 173 164 186 204 207 214 215 235 349 11 35 73 144 117 125 129
50 44 42 41 35 29 24 23 22 15 30 14 15 0 352 360 3 5 360 353 346 334 322 321 328 303 290 280 256 251 212 198 217 217 235 235 230 230 238 258 227 225 227 233 234 209 199 190 178 193 207 201 208 219 232 117 70 43 61 70 75 74 79
55 50 46 36 33 30 22 18 5 6 15 19 16 359 9 14 6 10 7 352 347 351 332 330 335 338 324 276 269 266 256 230 238 240 230 244 239 215 207 242 233 219 222 238 243 223 217 204 201 203 208 208 217 220 210 158 156 130 106 91 80 94 76
62 66 68 69 64 60 38 31 21 19 17 17 9 13 14 20 12 360 355 360 360 356 349 343 345 345 344 332 273 260 279 254 234 244 242 242 235 236 248 258 268 258 240 240 237 216 218 209 195 189 201 211 216 229 159 147 151 128 139 144 148 133 136
33 32 33 36 37 37 32 28 23 25 20 14 20 17 15 10 9 355 352 353 354 352 352 344 340 345 345 347 336 268 264 252 260 250 247 237 219 217 224 238 242 250 252 245 220 222 222 216 206 198 205 212 219 154 125 148 173 168 144 139 130 119 120
30 29 22 23 25 22 15 19 24 26 24 25 21 15 8 6 359 350 348 351 354 345 344 347 337 336 338 337 340 308 254 261 248 264 267 258 244 228 224 225 228 238 242 244 232 225 226 223 213 214 217 213 117 134 157 160 140 135 132 126 118 113 113
29 26 24 22 25 20 11 10 9 10 11 8 10 8 10 5 359 347 342 344 347 345 342 339 340 332 329 330 330 332 292 268 273 267 256 261 253 248 248 244 245 244 239 239 236 229 224 222 215 223 228 165 157 160 147 144 146 140 141 137 130 133 143
29 27 23 22 21 19 8 4 3 4 3 6 1 359 354 356 356 354 346 334 338 342 337 336 332 329 326 323 326 330 330 304 277 263 267 262 268 265 257 249 243 245 243 240 239 236 228 215 217 227 209 169 153 143 136 143 141 130 124 126 133 144 159